COSMOS 2058

Last updated on Mon Sep 21 2026 00:02:08 GMT+0000 (Coordinated Universal Time)

1 20465U 90010A 26263.35246827 .00003107 00000+0 17687-3 0 9995 2 20465 82.4672 215.4648 0010590 34.2924 325.8988 15.12458026971652
UTC large
Height (km)
Speed (km/s)
/
Latitude / Longitude
Inclination (degrees)
Orbital Period (minutes)
Azimuth
Elevation
Range (km)
Doppler Factor

Next 0 passes for location: London (51.5072 / 0.1276)

No passes found over London.
COSMOS 2058